Location: Lahitte
(43.6596°N, 0.6805°E)
Time: 05:43:12
(UTC+00:00)

Cosmos 1455 Rocket - Pass Details

Date: 15 May 2026
Orbit: 597 x 623 km, 82.5° (Epoch: 6 June)

Event Time Altitude Azimuth Distance (km) Brightness Sun altitude
Rises 19:42:17 0° 177° (S) 2,884 6.1 -5.0°
Reaches altitude 10° 19:44:31 10° 173° (S) 1,980 5.3 -5.3°
Maximum altitude 19:48:50 59° 95° (E) 718 3.1 -6.0°
Drops below altitude 10° 19:53:09 10° 16° (NNE) 1,983 5.9 -6.6°
Sets 19:55:24 0° 13° (NNE) 2,889 6.8 -7.0°
